Location: Gajan
(43.0218°N, 1.1244°E)
Time: 14:45:29
(UTC+00:00)

Cosmos 1634 Rocket - Pass Details

Date: 22 April 2021
Orbit: 958 x 993 km, 82.9° (Epoch: 12 May)

Event Time Altitude Azimuth Distance (km) Brightness Sun altitude
Rises 19:53:06 0° 193° (SSW) 3,679 6.8 -12.0°
Reaches altitude 10° 19:55:38 10° 195° (SSW) 2,730 6.2 -12.4°
Maximum altitude 20:01:53 70° 279° (W) 1,037 4.3 -13.3°
Drops below altitude 10° 20:08:06 10° 3° (N) 2,724 6.7 -14.3°
Sets 20:10:38 0° 6° (N) 3,670 7.4 -14.7°
